World > North America > United States > Mississippi

Hourly Camphill, MS Regional Weather

Feedback E-mail the Weather

Quick WX

Camphill, MS Weather Maps

°F °C°F °C
Camphill Weather Map
UTC Time: 7/3/2022, 12:16
Your Time:

Camphill, MS Regional Weather

Expires:202207031300;;607536
ASUS44 KJAN 031210
RWRMS 

MISSISSIPPI HOURLY WEATHER ROUNDUP
NATIONAL WEATHER SERVICE JACKSON MS
700 AM CDT SUN JUL 03 2022

NOTE: "FAIR: INDICATES FEW OR NO CLOUDS BELOW 12,000 FEET WITH NO
SIGNIFICANT WEATHER AND/OR OBSTRUCTIONS TO VISIBILITY.


MSZ003>006-009-014>017-022>024-029>033-037>039-031300-
NORTHEAST MISSISSIPPI
  
CITY           SKY/WX    TMP DP  RH WIND       PRES   REMARKS
ABERDEEN       FAIR      73  73 100 CALM      30.10R FOG              
COLUMBUS AFB   CLOUDY    75  72  92 CALM      30.05R                  
6HR MIN TEMP:  72; 6HR MAX TEMP:  75;                                

CORINTH        MOSUNNY   73  72  94 CALM      30.08S                  
GOLDN TRIANGLE CLOUDY    74  72  93 CALM      30.09R                  
TUPELO         CLOUDY    77  72  84 CALM      30.08S                  
6HR MIN TEMP:  75; 6HR MAX TEMP:  78;                                

$$


SKY/WX - Weather  TMP - Temperature  DP - Dew Point  RH - Humidity
WIND - Wind Direction/Speed PRES - Barometric Pressure VSB - Visibility
WCI - Wind Chill Index E13G22 Wind - East Wind 13 mph/Gusts of 22 mph

Trending Headlines

Camphill Radar Loop



Camphill Quick Facts


National Two Day Weather Forecast


E-mail the Camphill Weather Forecast

Voice your opinion or tell us about page issues...